Bellaire, MI

5:25 AM EDT on April 30, 2017 (GMT -0400)
Antrim County

Weather History for KACB - October, 2011

Change the Weather History Date:

Tuesday, October 4, 2011

  Actual Average (KCVX) Record (KCVX)
Temperature  
Mean Temperature 52 °F -  
Max Temperature 69 °F 66 °F 82 °F (2005)
Min Temperature 35 °F 44 °F 32 °F (2010)
Degree Days  
Heating Degree Days 13    
Growing Degree Days 2 (Base 50)    
Moisture  
Dew Point 38 °F    
Average Humidity 71    
Maximum Humidity 100    
Minimum Humidity 30    
Precipitation  
Precipitation 0.00 in - - ()
Sea Level Pressure  
Sea Level Pressure 30.25 in    
Wind  
Wind Speed 1 mph (SW)    
Max Wind Speed 7 mph    
Max Gust Speed -    
Visibility 9 miles    
Events      
Averages and records for this station are not official NWS values.
T = Trace of Precipitation, MM = Missing Value Source: NWS Daily Summary

Daily Weather History Graph

Daily Weather History Graph

Search for Another Location

Airport or City:

Trip Planner

Search our weather history database for the weather conditions in past years. The results will help you decide how hot, cold, wet, or windy it might be!

Date:

Astronomy

Oct. 04, 2011 Rise Set
Actual Time 7:42 AM EDT 7:16 PM EDT
Civil Twilight 7:12 AM EDT 7:45 PM EDT
Nautical Twilight 6:38 AM EDT 8:19 PM EDT
Astronomical Twilight 6:04 AM EDT 8:53 PM EDT
Moon 3:34 PM EDT (10/4) 12:06 AM EDT (10/4)
Length of Visible Light 12h 32m
Length of Day
11h 33m
First Quarter, 56% of the Moon is Illuminated
Oct 4
First Quarter
Oct 11
Full
Oct 19
Last Quarter
Oct 26
New
Nov 2
First Quarter

Hourly Weather History & Observations

Time (EDT) Temp. Dew Point Humidity Pressure Visibility Wind Dir Wind Speed Gust Speed Precip Events Conditions
12:10 AM 41.0 °F 39.2 °F 93% 30.24 in 10.0 mi Calm Calm - N/A   Clear
12:31 AM 39.2 °F 37.4 °F 93% 30.25 in 10.0 mi Calm Calm - N/A   Clear
12:51 AM 39.2 °F 37.4 °F 93% 30.25 in 10.0 mi Calm Calm - N/A   Clear
1:11 AM 39.2 °F 37.4 °F 93% 30.25 in 10.0 mi Calm Calm - N/A   Clear
1:31 AM 39.2 °F 37.4 °F 93% 30.25 in 10.0 mi Calm Calm - N/A   Clear
1:51 AM 39.2 °F 37.4 °F 93% 30.25 in 10.0 mi Calm Calm - N/A   Clear
2:11 AM 37.4 °F 37.4 °F 100% 30.25 in 10.0 mi Calm Calm - N/A   Clear
2:31 AM 37.4 °F 37.4 °F 100% 30.25 in 10.0 mi Calm Calm - N/A   Clear
2:50 AM 37.4 °F 35.6 °F 93% 30.24 in 10.0 mi Calm Calm - N/A   Clear
3:11 AM 37.4 °F 35.6 °F 93% 30.23 in 10.0 mi Calm Calm - N/A   Clear
3:31 AM 37.4 °F 35.6 °F 93% 30.23 in 5.0 mi Calm Calm - N/A   Clear
4:11 AM 37.4 °F 35.6 °F 93% 30.24 in 10.0 mi Calm Calm - N/A   Clear
4:31 AM 37.4 °F 35.6 °F 93% 30.25 in 10.0 mi Calm Calm - N/A   Clear
4:50 AM 37.4 °F 37.4 °F 100% 30.25 in 10.0 mi Calm Calm - N/A   Clear
5:11 AM 37.4 °F 35.6 °F 93% 30.25 in 10.0 mi Calm Calm - N/A   Clear
5:31 AM 37.4 °F 35.6 °F 93% 30.24 in 10.0 mi Calm Calm - N/A   Clear
5:50 AM 37.4 °F 35.6 °F 93% 30.25 in 10.0 mi Calm Calm - N/A   Clear
6:11 AM 37.4 °F 35.6 °F 93% 30.25 in 7.0 mi Calm Calm - N/A   Clear
6:31 AM 37.4 °F 35.6 °F 93% 30.26 in 1.5 mi Calm Calm - N/A   Mist
6:50 AM 35.6 °F 35.6 °F 100% 30.26 in 1.2 mi Calm Calm - N/A   Mist
7:11 AM 35.6 °F 35.6 °F 100% 30.26 in 5.0 mi Calm Calm - N/A   Clear
7:31 AM 35.6 °F 35.6 °F 100% 30.27 in 5.0 mi Calm Calm - N/A   Clear
8:11 AM 35.6 °F 35.6 °F 100% 30.28 in 2.5 mi Calm Calm - N/A   Clear
8:30 AM 37.4 °F 37.4 °F 100% 30.28 in 10.0 mi Calm Calm - N/A   Clear
8:51 AM 41.0 °F 37.4 °F 87% 30.29 in 10.0 mi Calm Calm - N/A   Mostly Cloudy
9:11 AM 42.8 °F 41.0 °F 93% 30.28 in 10.0 mi Calm Calm - N/A   Scattered Clouds
9:30 AM 44.6 °F 42.8 °F 93% 30.28 in 10.0 mi Calm Calm - N/A   Clear
9:51 AM 48.2 °F 42.8 °F 82% 30.28 in 10.0 mi Calm Calm - N/A   Clear
10:11 AM 50.0 °F 44.6 °F 82% 30.29 in 10.0 mi Calm Calm - N/A   Clear
10:30 AM 53.6 °F 44.6 °F 72% 30.29 in 10.0 mi Calm Calm - N/A   Clear
11:11 AM 59.0 °F 42.8 °F 55% 30.28 in 10.0 mi SSW 3.5 mph - N/A   Clear
11:30 AM 59.0 °F 42.8 °F 55% 30.28 in 10.0 mi South 3.5 mph - N/A   Clear
11:51 AM 60.8 °F 42.8 °F 52% 30.28 in 10.0 mi South 3.5 mph - N/A   Clear
12:11 PM 62.6 °F 41.0 °F 45% 30.27 in 10.0 mi South 5.8 mph - N/A   Clear
12:30 PM 62.6 °F 39.2 °F 42% 30.27 in 10.0 mi South 4.6 mph - N/A   Clear
12:51 PM 64.4 °F 35.6 °F 34% 30.27 in 10.0 mi SW 3.5 mph - N/A   Clear
1:11 PM 64.4 °F 37.4 °F 37% 30.26 in 10.0 mi Calm Calm - N/A   Clear
1:31 PM 66.2 °F 33.8 °F 30% 30.26 in 10.0 mi WSW 5.8 mph - N/A   Clear
1:51 PM 66.2 °F 35.6 °F 32% 30.25 in 10.0 mi SSW 3.5 mph - N/A   Clear
2:10 PM 68.0 °F 35.6 °F 30% 30.24 in 10.0 mi South 3.5 mph - N/A   Clear
2:31 PM 68.0 °F 35.6 °F 30% 30.23 in 10.0 mi South 4.6 mph - N/A   Clear
2:50 PM 68.0 °F 37.4 °F 33% 30.23 in 10.0 mi SW 6.9 mph - N/A   Clear
3:11 PM 69.8 °F 39.2 °F 33% 30.22 in 10.0 mi SW 5.8 mph - N/A   Clear
3:31 PM 69.8 °F 41.0 °F 35% 30.21 in 10.0 mi WSW 3.5 mph - N/A   Clear
3:50 PM 69.8 °F 41.0 °F 35% 30.21 in 10.0 mi West 4.6 mph - N/A   Clear
4:11 PM 69.8 °F 42.8 °F 38% 30.20 in 10.0 mi WSW 3.5 mph - N/A   Clear
4:31 PM 69.8 °F 42.8 °F 38% 30.20 in 10.0 mi West 4.6 mph - N/A   Clear
4:50 PM 69.8 °F 42.8 °F 38% 30.20 in 10.0 mi SW 4.6 mph - N/A   Clear
5:11 PM 69.8 °F 42.8 °F 38% 30.20 in 10.0 mi West 3.5 mph - N/A   Clear
5:25 PM 69.8 °F 42.8 °F 38% 30.19 in 10.0 mi Calm Calm - N/A   Clear
5:45 PM 69.8 °F 44.6 °F 40% 30.19 in 10.0 mi Calm Calm - N/A   Clear
6:05 PM 68.0 °F 48.2 °F 49% 30.19 in 10.0 mi Calm Calm - N/A   Clear
6:25 PM 64.4 °F 51.8 °F 64% 30.19 in 10.0 mi Calm Calm - N/A   Clear
6:45 PM 60.8 °F 51.8 °F 72% 30.19 in 10.0 mi Calm Calm - N/A   Clear
7:05 PM 59.0 °F 51.8 °F 77% 30.19 in 10.0 mi Calm Calm - N/A   Clear
7:25 PM 55.4 °F 50.0 °F 82% 30.20 in 10.0 mi Calm Calm - N/A   Clear
7:45 PM 55.4 °F 50.0 °F 82% 30.20 in 10.0 mi Calm Calm - N/A   Clear
8:05 PM 51.8 °F 48.2 °F 88% 30.20 in 10.0 mi Calm Calm - N/A   Clear
8:25 PM 51.8 °F 48.2 °F 88% 30.21 in 10.0 mi Calm Calm - N/A   Clear
8:45 PM 50.0 °F 48.2 °F 94% 30.21 in 10.0 mi Calm Calm - N/A   Clear
9:05 PM 48.2 °F 46.4 °F 93% 30.21 in 10.0 mi Calm Calm - N/A   Clear
9:25 PM 48.2 °F 46.4 °F 93% 30.21 in 10.0 mi Calm Calm - N/A   Clear
9:45 PM 48.2 °F 46.4 °F 93% 30.21 in 10.0 mi Calm Calm - N/A   Clear
10:05 PM 48.2 °F 46.4 °F 93% 30.21 in 10.0 mi Calm Calm - N/A   Clear
11:05 PM 46.4 °F 44.6 °F 93% 30.21 in 7.0 mi Calm Calm - N/A   Clear
11:25 PM 44.6 °F 44.6 °F 100% 30.22 in 7.0 mi Calm Calm - N/A   Clear
11:45 PM 44.6 °F 44.6 °F 100% 30.22 in 5.0 mi Calm Calm - N/A   Clear